Location: Czu?�w
(50.1404°N, 18.9919°E)
Time: 03:35:30
(UTC+00:00)

Cosmos 44 - Pass Details

Date: 27 October 2020
Orbit: 577 x 784 km, 65.1° (Epoch: 27 November)

Event Time Altitude Azimuth Distance (km) Brightness Sun altitude
Rises 17:49:58 0° 244° (WSW) 2,898 7.4 -23.1°
Reaches altitude 10° 17:52:19 10° 253° (WSW) 2,025 6.6 -23.5°
Maximum altitude 17:56:37 38° 322° (NW) 1,016 4.4 -24.2°
Enters shadow 17:59:01 23° 15° (NNE) 1,437 4.8 -24.6°
